Location: Alfortville
(48.8058°N, 2.4204°E)
Time: 14:20:23
(UTC+00:00)

Meteor 1-19 Rocket - Pass Details

Date: 13 December 2023
Orbit: 806 x 928 km, 81.2° (Epoch: 01 March)

Event Time Altitude Azimuth Distance (km) Brightness Sun altitude
Rises 17:08:15 0° 130° (SE) 3,526 7.2 -11.6°
Reaches altitude 10° 17:12:08 10° 105° (ESE) 2,610 6.3 -12.2°
Enters shadow 17:12:48 11° 99° (E) 2,516 6.1 -12.3°
